User: anonymous
Location: Bakersfield
(35.3730°N, 119.0180°W)
Time: 14:35:09
(UTC-07:00)
Language:

Cosmos 1222 Rocket - Orbit

View from above orbital plane
View from above orbital plane
View from above satellite
View from above satellite

Ground track
Ground track

The orbit data is extracted from the following two-line orbital elements,

1 12072U 80093B   14294.12471246  .00067517  00000-0  71043-3 0  2592
2 12072 081.1820 170.8362 0008549 271.2219 088.8056 15.63995762865738
Epoch (UTC): 21 October 2014 02:59:35
Eccentricity: 0.0008549
inclination: 81.1820°
perigee height: 370 km
apogee height: 382 km
right ascension of ascending node: 170.8362°
argument of perigee: 271.2219°
revolutions per day: 15.63995762
mean anomaly at epoch: 88.8056°
orbit number at epoch: 86573

The dashed part of the orbit path shows where the satellite is in the earth's shadow,  

DLR